STARLINK-11319, 61251

Orbit data source: Space-Track

STARLINK-11319, 61251 is a payload satellite owned by SpaceX/Seattle (US) in LEO that was launched on Wed, 25 Sep 2024 UTC via an FALCON 9 launch vehicle from the Air Force Western Test Range (AFWTR). Payloads include a variety of satellites, spacecraft, and rockets equipped with specific instruments for various scientific and technological missions. These include communications satellites like Starlink; space stations such as the ISS; scientific satellites like the Hubble; Earth observation satellites from companies like Planet Labs, Umbra, and HawkEye 360; GPS; miniature CubeSats for education and research; and military/defense satellites.

Loading next visibility...
STARLINK-11319 details
Identifier
61251, 2024-175J
Orbit
LEO
Last TLE update23 hours ago
Origin
Flag of USSpaceX/Seattle (US)
ManufacturerSpaceX/Seattle
MissionOperational spacecraft
Bus & MotorSTARLINK V2M, Unknown motor
Mass730 kg wet, ~700 kg dry
Launch date (UTC)
2024-09-25 (3 months ago)
Launch vehicle
FALCON 9
Launch site
Air Force Western Test Range (AFWTR)
Object type
Payload
Rocket body
Debris
Shape & HBRUnknown
Radar Cross SectionLarge (>1 m²)

Expand to show TLE details & history

TLE from 23 hours ago
0 STARLINK-11319
1 61251U 24175J   24355.54096041 -.00006495  00000-0 -48682-4 0  9990
2 61251  53.1577  86.0713 0000812 103.1704 256.9404 15.69765026 13604
Epoch: 2024-12-20T12:58Z
Definitive object data (Epoch: 2024-12-20T12:58:58.979Z)
Latitude-0.00006°
Longitude161.72051°
Altitude360.608 km
Speed7.694 km/s
True Right ascension05h 44m 17s
True Declination0° 00' 00"
Sunlit
Object was in full shadow at TLE epoch
Visualization TLE readout
Latitude4.53788°
Longitude160.39583°
Altitude360.141 km
Speed7.695 km/s
Apparent Right ascension03h 00m 44s
Apparent Declination-25° 05' 03"
Sunlit
Object is in full shadow
Visualization observer readout
Local Sidereal Time10:57:20
Azimuth266.955° W
Elevation-37.619°
Doppler factor1
Orbital elements
Apogee altitude360.377 km
Perigee altitude359.283 km
Semi-major axis6,737.967 km
Eccentricity0.0000812
Inclination53.1577°
RAAN86.0713°
Arg. of periapsis103.1704°
True anomaly256.93134°
Mean anomaly256.9404°
Eccentric anomaly256.93587°
Mean motion3.92419 °/min
BSTAR-0.000048682
Orbital period91.74 mins
Loading maneuver chart data...
Loading historical data...
Loading historical data...
Loading historical data...
Loading historical data...
Loading historical data...
Loading historical data...
Loading historical data...

STARLINK-11319 Visibility forecast

Observer location: undefined°, undefined

Span
Click to sort rows by Start time (UTC) header in descending order
Start Az.
Max El. time (UTC)
Max El. Az.
Max El.
End time (UTC)
End Az.
4 mins2024-12-21 15:27:37.784Z325.087° NNW2024-12-21 15:29:37.784Z78.786° E37.534°2024-12-21 15:31:37.784Z116.644° SE
4 mins2024-12-22 07:56:37.784Z180.952° SSW2024-12-22 07:58:37.784Z113.808° SE24.333°2024-12-22 08:00:37.784Z72.084° E
|